Weather History for Oklahoma City Wiley Post, OK

Change the Weather History Date:

Wednesday, October 9, 2013

  Actual Average Record
Temperature  
Mean Temperature 68 °F -  
Max Temperature 81 °F 71 °F 94 °F (1956)
Min Temperature 57 °F 48 °F 23 °F (2000)
Cooling Degree Days 4    
Growing Degree Days 18 (Base 50)    
Moisture  
Dew Point 48 °F    
Average Humidity 50    
Maximum Humidity 69    
Minimum Humidity 31    
Precipitation  
Precipitation 0.00 in - - ()
Sea Level Pressure  
Sea Level Pressure 29.97 in    
Wind  
Wind Speed 16 mph (SSE)    
Max Wind Speed 22 mph    
Max Gust Speed 28 mph    
Visibility 8 miles    
Events      
Averages and records for this station are not official NWS values.
T = Trace of Precipitation, MM = Missing Value Source: NWS Daily Summary

Daily Weather History Graph

Daily Weather History Graph

Search for Another Location

Airport:

Trip Planner

Search our weather history database for the weather conditions in past years. The results will help you decide how hot, cold, wet, or windy it might be!

Date:

Astronomy

Oct. 09, 2013 Rise Set
Actual Time 7:32 AM CDT 7:02 PM CDT
Civil Twilight 7:06 AM CDT 7:28 PM CDT
Nautical Twilight 6:37 AM CDT 7:57 PM CDT
Astronomical Twilight 6:07 AM CDT 8:27 PM CDT
Moon 12:20 PM CDT (10/9) 10:46 PM CDT (10/9)
Length of Visible Light 12h 21m
Length of Day
11h 30m
Waxing Crescent, 25% of the Moon is Illuminated
Oct 9
Waxing Crescent
Oct 11
First Quarter
Oct 18
Full
Oct 26
Last Quarter
Nov 3
New

Hourly Weather History & Observations

Time (CDT) Temp. Dew Point Humidity Pressure Visibility Wind Dir Wind Speed Gust Speed Precip Events Conditions
12:53 AM 62.1 °F 46.0 °F 56% 29.96 in 8.0 mi SSE 16.1 mph - N/A   Clear
1:53 AM 61.0 °F 46.0 °F 58% 29.97 in 8.0 mi SSE 16.1 mph - N/A   Clear
2:53 AM 60.1 °F 46.9 °F 62% 29.97 in 8.0 mi SSE 18.4 mph 25.3 mph N/A   Clear
3:53 AM 59.0 °F 46.9 °F 64% 29.96 in 8.0 mi SSE 19.6 mph 26.5 mph N/A   Clear
4:53 AM 59.0 °F 46.9 °F 64% 29.96 in 8.0 mi SSE 21.9 mph 26.5 mph N/A   Clear
5:53 AM 57.9 °F 46.9 °F 67% 29.97 in 8.0 mi SSE 19.6 mph - N/A   Clear
6:53 AM 57.9 °F 46.9 °F 67% 29.98 in 8.0 mi SSE 17.3 mph - N/A   Clear
7:53 AM 57.0 °F 46.9 °F 69% 29.99 in 6.0 mi South 18.4 mph - N/A   Haze
8:53 AM 60.1 °F 48.0 °F 64% 30.01 in 7.0 mi South 18.4 mph 27.6 mph N/A   Clear
9:53 AM 64.0 °F 48.9 °F 58% 30.02 in 7.0 mi South 17.3 mph 25.3 mph N/A   Clear
10:53 AM 69.1 °F 50.0 °F 51% 30.03 in 7.0 mi South 18.4 mph - N/A   Clear
11:53 AM 72.0 °F 50.0 °F 46% 30.02 in 7.0 mi South 16.1 mph 20.7 mph N/A   Clear
12:53 PM 75.9 °F 48.9 °F 38% 30.00 in 8.0 mi South 15.0 mph - N/A   Clear
1:53 PM 78.1 °F 48.9 °F 36% 29.97 in 7.0 mi South 13.8 mph 23.0 mph N/A   Clear
2:53 PM 80.1 °F 48.0 °F 32% 29.96 in 8.0 mi South 12.7 mph - N/A   Clear
3:53 PM 80.1 °F 46.9 °F 31% 29.95 in 7.0 mi SSE 20.7 mph 25.3 mph N/A   Clear
4:53 PM 80.1 °F 46.9 °F 31% 29.94 in 8.0 mi South 15.0 mph - N/A   Clear
5:53 PM 78.1 °F 46.9 °F 33% 29.94 in 7.0 mi SSE 13.8 mph - N/A   Clear
6:53 PM 75.0 °F 46.9 °F 37% 29.93 in 7.0 mi SE 12.7 mph - N/A   Clear
7:53 PM 72.0 °F 46.9 °F 41% 29.94 in 8.0 mi SE 10.4 mph - N/A   Clear
8:53 PM 71.1 °F 48.0 °F 44% 29.96 in 8.0 mi SSE 12.7 mph - N/A   Clear
9:53 PM 69.1 °F 48.0 °F 47% 29.98 in 8.0 mi SSE 9.2 mph - N/A   Clear
10:53 PM 66.9 °F 48.0 °F 51% 29.99 in 8.0 mi SSE 12.7 mph - N/A   Clear
11:53 PM 64.9 °F 48.9 °F 56% 29.98 in 8.0 mi SE 11.5 mph - N/A   Clear